Location: Gro�bocka
(50.8204°N, 11.9702°E)
Time: 01:57:20
(UTC+00:00)

Cosmos 1315 Rocket - Pass Details

Date: 29 October 2020
Orbit: 530 x 567 km, 81.2° (Epoch: 23 November)

Event Time Altitude Azimuth Distance (km) Brightness Sun altitude
Rises 17:41:13 0° 184° (S) 2,681 6.4 -17.8°
Reaches altitude 10° 17:43:21 10° 181° (S) 1,800 5.5 -18.1°
Maximum altitude 17:47:17 67° 99° (E) 595 2.7 -18.7°
Drops below altitude 10° 17:51:18 10° 17° (NNE) 1,838 5.3 -19.4°
Enters shadow 17:51:58 - 16° (NNE) 2,110 5.6 -19.5°
